EW7691 Weather Reports


time (UTC)temp
F
wind
direction
speed
knots
gust
knots
rain 1hr
in
rain 24hr
in
rain mn
in
humidity
%
barometer
mb
20260504033127 44 133 0.0 0.0 0.00 0.01 0.01 88 1016.3
20260504031524 45 133 0.0 0.0 0.00 0.01 0.01 87 1016.5
20260504030006 46 133 0.0 0.0 0.00 0.01 0.01 86 1016.6
20260504024505 46 133 0.0 0.0 0.00 0.01 0.01 83 1016.5
20260504023048 47 133 0.0 0.0 0.00 0.01 0.01 81 1016.6
20260504021547 48 133 0.0 0.0 0.00 0.01 0.01 80 1016.3
20260504020039 49 133 0.0 0.0 0.00 0.01 0.01 79 1015.9
20260504014535 50 133 0.0 0.0 0.00 0.01 0.01 74 1015.6
20260504013033 52 133 0.0 0.0 0.00 0.01 0.01 72 1015.5
20260504011533 53 133 0.0 0.0 0.00 0.01 0.01 69 1015.4
20260504010041 55 133 0.0 0.0 0.00 0.01 0.01 66 1015.5
20260504004532 58 133 0.0 0.0 0.00 0.01 0.01 56 1015.5
20260504003029 61 132 0.0 0.0 0.00 0.01 0.01 48 1015.4
20260504001528 63 148 0.0 1.7 0.00 0.01 0.01 42 1015.5
20260504000010 66 152 0.0 1.7 0.00 0.01 0.01 40 1015.7
20260503234510 67 236 0.9 3.5 0.00 0.01 0.01 37 1016.1
20260503233049 67 226 1.7 6.1 0.00 0.01 0.01 35 1016.2
20260503231552 68 202 1.7 4.3 0.00 0.01 0.01 36 1016.3
20260503230029 68 229 2.6 6.1 0.00 0.01 0.01 34 1016.3
20260503224528 68 233 4.3 8.7 0.00 0.01 0.01 33 1016.4
20260503223020 68 251 2.6 7.0 0.00 0.01 0.01 35 1016.7
20260503221507 68 219 0.9 8.7 0.00 0.01 0.01 34 1016.7
20260503220056 69 229 1.7 6.1 0.00 0.01 0.01 37 1016.9
20260503214556 68 236 0.0 6.1 0.00 0.01 0.01 36 1017.1
20260503213120 68 210 1.7 7.0 0.00 0.01 0.01 33 1017.3
20260503211613 67 238 0.0 6.1 0.00 0.01 0.01 36 1017.6
20260503210044 67 233 2.6 8.7 0.00 0.01 0.01 37 1017.8
20260503204558 67 216 1.7 5.2 0.00 0.01 0.01 36 1018.1
20260503203040 66 240 3.5 9.6 0.00 0.01 0.01 37 1018.4
20260503201538 66 252 2.6 7.8 0.00 0.01 0.01 36 1018.7
20260503200027 65 283 1.7 7.0 0.00 0.01 0.01 35 1019.0
20260503194527 65 224 1.7 6.1 0.00 0.01 0.01 35 1019.3
20260503193054 64 144 3.5 6.1 0.00 0.01 0.01 37 1019.5
20260503191602 64 203 2.6 8.7 0.00 0.01 0.01 36 1019.6
20260503190033 64 246 0.9 7.8 0.00 0.01 0.01 40 1020.0
20260503184529 63 182 2.6 7.8 0.00 0.01 0.01 41 1020.1
20260503183008 63 248 2.6 6.1 0.00 0.01 0.01 40 1020.2
20260503181506 62 128 2.6 7.8 0.00 0.01 0.01 41 1020.4
20260503180046 62 220 3.5 8.7 0.00 0.01 0.01 41 1020.6
20260503174555 61 229 2.6 6.1 0.00 0.01 0.01 42 1020.7
20260503173025 61 310 2.6 5.2 0.00 0.01 0.01 40 1021.0
20260503171527 61 105 0.9 3.5 0.00 0.01 0.01 43 1021.3
20260503100108 32 302 0.0 0.0 0.00 0.00 0.00 95 1020.7
20260503081554 35 302 0.0 0.0 0.00 0.00 0.00 94 1020.4
20260503071615 36 302 0.0 0.0 0.00 0.00 0.00 94 1020.3
20260503070114 36 302 0.0 0.0 0.00 0.00 0.00 94 1020.1
20260503054602 38 302 0.0 0.0 0.00 0.00 0.00 93 1020.0
20260503053058 38 302 0.0 0.0 0.00 0.00 0.00 93 1020.1
20260503051547 39 302 0.0 0.0 0.00 0.00 0.00 93 1019.9
20260503050038 39 302 0.0 0.0 0.00 0.00 0.00 93 1019.9
20260503044519 39 302 0.0 0.0 0.00 0.00 0.00 94 1019.8
20260503043021 40 302 0.0 0.0 0.00 0.00 0.00 93 1019.6
20260503041559 40 302 0.0 0.0 0.00 0.00 0.00 92 1019.6
20260503040058 41 302 0.0 0.0 0.00 0.00 0.00 92 1019.5
20260503034545 41 302 0.0 0.0 0.00 0.00 0.00 91 1019.5